Location: Moscow
(55.7500°N, 37.5830°E)
Time: 03:29:58
(UTC+03:00)

Kosmos-337 - Pass Details

Date: 11 July 2022
Orbit: 1467 x 1552 km, 74.0° (Epoch: 13 August)

Event Time Altitude Azimuth Distance (km) Brightness Sun altitude
Rises 23:17:17 0° 329° (NNW) 4,737 ? -10.5°
Reaches altitude 10° 23:20:18 10° 331° (NNW) 3,750 ? -10.6°
Maximum altitude 23:29:31 72° 57° (ENE) 1,617 ? -11.0°
Drops below altitude 10° 23:38:34 10° 141° (SE) 3,692 ? -11.3°
Enters shadow 23:38:43 - 141° (SE) 3,746 ? -11.3°
